Lapse_Rate
5.2 6.5 6.5 6.5 6.5 6.5 6.5 6.5 6.5 6.5 6.5 6.5 6.5 6.5 6.5 5.6 3.6 3.3 1.0 -0.5 -1.0 -0.9 -0.8 -1.8 -1.6 -1.5 -2.0 -2.2 -1.9 -1.2 -1.3 -1.7 -1.6 -2.5 -2.3 -2.1 -3.0 -3.6 -4.3 -3.4 -1.8 -1.5 -1.3 -1.4
6.5 6.5 6.5 6.5 6.5 6.5 6.5 6.5 6.5 6.5 6.5 6.5 6.5 6.5 6.5 6.6 5.6 3.3 3.0 0.5 -0.5 -1.4 -2.2 -2.6 -2.3 -2.6 -1.9 -1.2 -1.6 -1.7 -1.1 -1.6 -0.7 -0.0 -2.4 -2.1 -3.2 -3.2 -2.8 -2.4 -2.6 -2.2 -2.1 -1.8
6.5 6.5 6.4 6.5 6.5 6.5 6.5 6.5 6.5 6.5 6.5 6.5 6.5 6.5 6.5 6.5 5.6 3.7 2.1 1.9 0.2 -0.7 -1.3 -3.1 -3.1 -2.8 -2.2 -1.7 -2.2 -1.6 -1.3 -1.3 -0.6 -1.7 -3.0 -3.0 -2.8 -3.5 -4.1 -4.7 -4.6 -3.8 -2.3 -1.9
6.5 6.3 6.5 6.5 6.5 6.5 6.5 6.5 6.5 6.5 6.5 6.5 6.5 6.5 6.5 6.5 6.5 6.5 2.7 0.7 0.2 -1.9 -1.8 -1.8 -2.6 -3.4 -2.8 -2.0 -2.0 -1.3 -1.5 -1.5 -1.3 -2.6 -1.4 -1.8 -1.0 -2.5 -4.3 -3.5 -3.9 -3.3 -2.7 -2.7
6.5 6.5 6.5 6.5 6.5 6.5 6.5 6.5 6.5 6.5 6.5 6.5 6.5 6.5 6.5 6.5 6.5 6.5 6.0 0.2 -1.4 -2.1 -2.3 -2.4 -2.7 -1.8 -2.5 -2.3 -3.3 -2.5 -2.3 -1.9 -1.6 -2.1 -1.2 -1.3 -1.9 -2.8 -4.0 -3.7 -3.3 -3.7 -3.9 -3.0
6.5 5.5 6.4 6.5 6.5 6.5 6.5 6.5 6.5 6.5 6.5 6.5 6.5 6.5 6.5 6.5 6.5 6.5 5.7 2.6 -1.5 -2.6 -3.3 -3.0 -3.1 -3.0 -3.0 -3.8 -3.5 -3.6 -3.2 -2.5 -2.9 -2.5 -2.6 -2.1 -2.2 -3.4 -4.3 -4.4 -4.6 -4.5 -4.6 -4.6
6.5 6.5 6.4 6.2 6.5 6.5 6.5 6.5 6.5 6.5 6.5 6.5 6.5 6.5 6.5 6.5 6.5 6.5 6.5 2.7 1.4 -2.3 -3.1 -3.4 -3.4 -3.9 -3.7 -4.6 -4.6 -4.0 -3.6 -3.0 -3.5 -3.0 -2.9 -2.9 -2.9 -3.7 -3.5 -3.8 -4.5 -4.4 -4.4 -4.7
6.5 6.5 6.5 6.5 6.5 6.5 6.5 6.5 6.5 6.5 6.5 6.5 6.5 6.5 6.5 6.5 5.1 2.9 2.7 1.8 0.0 -0.7 -3.7 -4.3 -3.8 -4.0 -4.0 -3.9 -4.4 -3.7 -4.2 -3.1 -3.7 -3.3 -3.4 -3.4 -3.6 -3.6 -3.6 -4.6 -5.1 -4.9 -4.6 -3.8
6.5 6.5 6.5 6.5 6.5 6.5 6.5 6.5 6.5 6.5 6.5 6.5 6.5 6.5 6.5 6.5 6.5 5.7 4.5 2.4 1.5 0.2 -1.2 -3.2 -4.3 -4.6 -4.4 -4.7 -4.4 -4.0 -4.2 -3.1 -3.8 -3.5 -3.3 -4.1 -4.4 -4.7 -4.6 -5.8 -5.4 -5.2 -4.9 -4.0
6.5 6.5 6.5 6.5 6.3 6.4 6.5 6.5 6.5 6.5 6.5 6.5 6.5 6.5 6.5 6.5 6.5 6.5 6.5 4.5 0.5 -0.5 -1.0 -2.0 -2.8 -4.0 -4.9 -4.7 -4.5 -4.7 -4.0 -3.2 -3.3 -3.7 -3.6 -3.5 -4.2 -4.5 -4.5 -6.1 -5.3 -5.4 -5.0 -4.5
6.5 6.5 6.5 6.5 6.5 6.5 6.5 6.5 6.5 6.5 6.5 6.5 6.5 6.5 6.5 6.5 6.5 6.5 6.2 2.7 1.3 -0.4 -1.0 -2.0 -2.6 -3.2 -3.8 -4.4 -5.3 -4.8 -4.8 -4.2 -4.2 -3.9 -4.0 -4.0 -4.7 -5.0 -5.6 -5.0 -4.8 -4.7 -4.9 -4.4
6.5 6.5 6.5 6.5 6.5 6.5 6.5 6.5 6.5 6.5 6.5 6.5 6.5 6.5 6.5 6.5 6.6 5.9 4.4 2.3 1.8 1.6 0.6 -1.1 -2.1 -2.9 -3.9 -4.6 -5.1 -5.2 -4.9 -4.4 -3.6 -4.0 -4.1 -4.2 -5.1 -5.5 -5.0 -4.8 -5.0 -5.4 -4.6 -4.5
6.5 6.5 6.5 6.5 6.5 6.5 6.5 6.5 6.5 6.5 6.5 6.5 6.5 6.5 6.5 6.3 6.1 4.0 4.3 2.6 0.6 0.4 1.0 -0.6 -1.2 -2.8 -3.7 -4.6 -5.2 -5.1 -4.7 -4.1 -4.0 -5.0 -4.3 -4.8 -4.6 -5.0 -4.5 -4.5 -4.9 -5.3 -4.6 -4.3
5.6 6.5 6.5 6.5 6.5 6.5 6.5 6.5 6.5 6.5 6.5 6.5 6.5 6.5 6.5 6.5 6.5 6.1 5.4 4.0 5.2 2.1 0.7 0.8 -1.0 -1.5 -2.9 -3.7 -4.3 -4.4 -4.2 -4.3 -4.6 -4.4 -4.4 -3.9 -4.1 -4.4 -4.1 -4.4 -5.1 -4.7 -4.5 -4.1
6.6 6.5 6.5 6.5 6.5 6.5 6.5 6.5 6.5 6.5 6.5 6.5 6.5 6.5 6.5 6.5 6.5 4.7 4.7 5.1 4.5 3.3 2.1 0.9 1.0 -0.2 -1.5 -3.0 -3.8 -4.3 -4.3 -4.6 -4.6 -4.0 -4.0 -3.7 -3.7 -4.4 -4.6 -5.1 -4.8 -4.6 -4.7 -3.6
6.3 6.5 6.5 6.5 6.5 6.5 6.5 6.5 6.5 6.5 6.5 6.5 6.5 6.5 6.5 6.0 5.3 5.7 5.2 3.2 3.2 3.4 3.3 2.0 0.9 0.2 -0.7 -1.6 -3.0 -3.0 -3.2 -4.0 -4.6 -3.8 -3.7 -3.3 -4.6 -4.9 -4.6 -4.5 -4.9 -5.0 -4.4 -4.2
6.5 6.5 6.5 6.5 6.5 6.5 6.5 6.5 6.5 6.5 6.5 6.5 6.5 6.5 6.5 6.5 6.3 5.3 4.0 2.8 2.7 3.3 3.0 2.7 1.8 1.1 -0.3 -0.6 -0.9 -2.5 -2.4 -2.9 -4.4 -3.5 -3.2 -3.7 -3.8 -4.2 -4.5 -4.4 -4.9 -4.3 -4.3 -4.2
6.5 6.5 6.5 6.5 6.5 6.5 6.5 6.5 6.5 6.5 6.5 6.5 6.5 6.5 6.3 6.2 5.6 3.4 2.4 2.2 2.4 2.8 2.3 1.7 1.4 0.8 -1.1 -1.1 -1.5 -1.8 -3.0 -4.3 -3.9 -3.2 -2.9 -3.1 -3.4 -3.6 -3.8 -4.9 -4.5 -3.8 -4.1 -4.2
6.5 6.5 6.5 6.5 6.5 6.5 6.5 6.5 6.5 6.5 6.5 6.5 6.5 6.5 6.2 6.2 4.9 3.6 2.0 3.5 3.8 3.4 2.2 0.9 -0.1 -0.8 -1.7 -2.2 -2.4 -2.6 -2.7 -3.1 -3.8 -3.3 -3.1 -3.0 -3.1 -3.2 -3.9 -4.8 -4.2 -3.9 -4.6 -4.3
6.5 6.5 6.5 6.5 6.5 6.5 6.5 6.5 4.7 6.2 6.5 6.4 6.4 6.4 6.4 5.8 6.5 6.5 5.9 4.3 3.0 2.3 1.8 0.1 -1.4 -2.2 -2.5 -2.4 -2.2 -2.3 -2.6 -3.3 -3.1 -2.5 -2.9 -2.8 -3.1 -2.8 -3.7 -3.9 -3.9 -3.9 -4.1 -3.3
6.5 6.5 6.5 6.5 6.5 6.5 6.5 6.1 5.1 6.5 6.5 6.4 6.2 5.9 6.1 6.5 6.1 6.0 5.1 4.8 3.4 2.3 0.8 0.7 0.1 -1.2 -1.4 -2.1 -2.2 -2.4 -2.8 -3.7 -2.8 -2.7 -3.2 -3.7 -4.1 -3.3 -2.7 -3.2 -4.0 -4.1 -4.0 -3.9
6.5 6.5 6.5 6.5 6.5 6.5 6.4 6.2 6.5 6.4 6.5 6.5 6.4 5.9 6.3 6.2 5.6 5.2 5.1 4.8 4.8 3.6 2.1 0.4 0.4 0.5 -0.8 -2.0 -2.2 -2.0 -2.5 -1.8 -2.5 -3.0 -3.5 -4.1 -4.4 -3.2 -3.0 -3.8 -4.7 -4.6 -3.8 -3.9
6.5 6.5 6.5 6.5 6.5 6.4 6.8 6.5 5.7 6.1 6.5 6.8 6.6 6.2 6.2 6.3 6.4 5.8 5.5 4.7 4.7 4.4 3.9 2.0 0.2 -0.7 -0.8 -1.0 -2.3 -2.3 -1.8 -2.5 -2.8 -3.3 -3.5 -3.5 -3.4 -3.5 -3.3 -3.4 -4.5 -3.9 -3.5 -2.7
6.5 5.8 6.5 6.5 6.5 6.5 6.5 6.9 7.5 7.4 7.2 6.6 6.6 6.5 6.3 6.1 6.4 6.6 6.3 5.7 5.1 4.9 4.3 3.7 1.8 0.6 -0.8 -0.9 -1.2 -2.6 -2.9 -3.2 -3.4 -3.3 -3.4 -3.8 -4.0 -4.0 -4.2 -3.6 -3.5 -2.5 -2.8 -2.1
6.4 6.1 6.5 6.5 6.4 6.5 6.6 6.9 6.2 6.7 7.4 7.6 7.5 7.6 7.4 7.0 6.8 6.9 6.9 7.0 6.2 5.6 4.9 3.5 2.4 2.4 1.0 -1.1 -1.7 -1.9 -2.5 -2.9 -2.8 -3.2 -3.6 -3.9 -4.5 -4.4 -4.9 -4.4 -3.9 -2.5 -2.7 -1.1
6.5 6.5 6.5 6.5 6.5 6.5 6.6 7.1 7.3 7.1 7.0 7.3 7.5 7.6 7.8 7.9 7.3 7.3 7.1 7.1 6.9 5.7 4.6 4.4 3.5 1.4 1.6 -0.0 -0.6 -1.8 -2.1 -2.8 -2.7 -2.5 -3.0 -3.9 -4.7 -5.4 -5.7 -5.7 -5.3 -4.4 -3.2 -2.0
Wind_Speed
3 4 4 6 5 2 2 2 4 5 4 3 8 11 19 16 7 11 11 10 12 15 11 9 11 12 9 8 9 11 10 9 8 3 3 2 4 3 4 12 17 17 16 15
5 4 4 3 2 2 3 3 6 6 3 3 8 20 20 18 9 11 15 13 15 7 9 9 10 10 13 14 13 11 12 10 10 7 3 3 3 3 3 7 14 18 17 17
5 3 2 3 1 1 2 4 4 5 6 3 8 10 6 4 3 6 10 12 10 16 15 11 11 12 12 13 13 13 14 13 11 9 4 3 2 1 1 3 3 9 17 17
4 4 3 2 3 5 3 3 3 5 5 3 5 6 8 6 9 7 9 9 13 11 8 8 11 11 13 15 12 13 12 12 12 12 9 7 7 6 4 4 3 4 13 15
6 2 1 1 4 5 7 1 1 1 1 4 4 2 9 5 7 8 9 10 11 11 12 13 12 14 11 12 13 13 13 12 11 14 13 10 7 6 3 2 4 4 5 10
6 2 3 5 1 1 2 0 5 4 2 2 3 3 7 3 3 9 6 6 9 10 10 9 8 8 8 8 10 10 12 12 11 13 12 13 12 8 5 5 4 5 4 4
6 3 3 2 2 2 5 6 4 4 3 5 1 0 11 9 10 7 12 12 8 8 9 9 9 9 8 10 10 10 12 12 12 13 12 13 13 10 11 8 6 6 4 4
1 6 3 1 3 5 1 5 5 4 2 5 2 6 6 5 7 9 10 10 9 7 7 10 10 9 10 11 12 13 13 11 12 13 13 12 11 8 8 7 6 5 5 5
4 5 1 0 1 1 2 3 3 4 2 2 4 8 10 3 6 11 12 10 10 8 6 8 8 9 9 9 12 15 13 12 13 14 12 11 10 11 10 8 6 5 6 5
2 3 1 2 2 2 3 4 3 3 2 5 5 6 6 7 9 11 19 15 12 9 9 6 6 8 7 8 8 10 12 16 14 14 12 11 12 12 10 7 9 8 7 6
5 3 3 1 5 8 1 1 4 3 4 4 3 6 6 3 3 5 8 9 9 9 9 7 6 5 5 4 7 10 10 11 10 12 11 10 10 10 8 9 9 9 6 7
3 4 4 10 1 2 3 7 6 4 4 2 2 7 3 7 5 5 8 7 6 5 7 7 7 6 7 8 8 9 9 10 12 11 10 12 8 8 10 11 10 7 8 7
1 2 2 8 4 2 4 5 4 4 3 7 4 6 2 4 9 6 8 9 8 8 8 7 5 7 8 8 8 9 10 12 10 9 10 9 11 11 12 12 9 8 8 8
1 4 6 6 3 3 4 5 6 6 3 7 13 24 19 22 23 27 22 12 18 12 9 8 8 8 8 8 8 8 10 10 9 11 11 12 13 14 13 11 10 10 10 9
5 4 3 5 7 4 5 7 6 9 10 11 7 18 8 9 9 11 15 20 18 18 12 9 10 9 8 8 8 8 9 9 10 12 12 15 12 10 9 10 10 10 10 11
7 5 6 4 7 9 13 11 11 10 10 13 13 29 17 18 17 17 14 12 15 17 18 15 11 10 10 9 9 10 11 12 11 12 15 13 10 10 12 11 11 9 10 10
3 3 6 5 5 12 18 9 17 14 10 10 17 22 18 14 14 12 11 9 12 18 18 16 14 12 9 9 9 9 12 8 11 13 13 11 12 13 13 12 10 12 12 10
8 5 3 9 5 13 6 3 1 7 10 12 14 15 17 18 14 9 11 11 15 14 15 14 11 11 9 7 7 9 7 9 11 13 13 12 12 14 12 12 14 13 11 13
19 11 5 6 12 19 32 22 19 9 18 6 8 14 16 21 4 8 8 5 9 17 14 13 10 9 8 8 8 6 6 7 7 11 13 13 14 15 12 13 14 12 11 11
15 14 10 8 6 10 2 4 10 2 5 11 15 13 16 17 8 7 22 23 22 17 13 11 9 7 7 7 4 6 8 8 10 12 15 13 10 12 13 15 14 11 11 14
7 4 12 12 11 13 5 16 15 15 6 15 7 8 11 6 6 17 21 21 20 15 14 11 10 8 8 6 2 6 6 9 12 8 7 8 9 13 13 12 9 10 11 8
11 7 7 7 11 15 15 6 2 5 12 16 16 6 14 13 14 14 18 16 17 19 17 11 9 11 8 7 3 6 7 6 6 7 7 8 8 9 7 9 7 7 10 10
3 6 6 4 5 12 21 15 7 9 16 19 21 19 14 15 15 16 15 16 14 16 16 11 8 10 8 8 5 8 6 5 5 5 7 7 6 6 6 8 7 6 9 9
7 11 11 12 22 23 24 18 18 18 19 16 15 15 19 17 15 15 16 15 14 14 14 12 13 13 12 7 8 7 8 7 6 6 6 5 5 6 6 5 6 7 8 8
8 5 10 18 23 22 24 21 19 16 13 17 20 20 17 18 17 15 17 18 16 14 14 11 9 12 14 8 9 8 8 5 6 6 6 5 5 6 5 6 6 8 9 11
16 22 15 18 21 19 23 28 27 19 22 24 19 21 21 20 22 18 16 15 15 17 16 16 16 8 12 9 9 9 7 6 6 6 5 4 4 4 4 5 4 3 7 11
Wind_Direction
15 55 231 227 203 240 291 248 272 258 282 262 245 266 272 267 219 242 234 228 227 228 232 210 204 202 195 191 188 192 179 183 162 144 160 194 212 203 220 225 231 232 234 237
19 229 224 215 189 180 224 304 291 287 281 193 300 281 264 258 235 216 225 224 225 211 212 208 200 189 193 201 201 192 196 178 188 186 168 167 162 207 198 213 226 230 232 234
174 242 143 153 214 234 278 231 261 255 317 274 310 293 315 297 250 238 231 227 219 212 214 211 200 198 197 201 195 197 196 189 190 178 126 103 82 63 175 228 237 225 227 231
238 285 285 194 225 140 303 208 257 306 23 295 26 288 296 317 301 259 256 227 229 214 207 204 198 197 197 208 197 198 191 188 187 172 182 174 193 201 207 197 198 220 223 227
257 296 296 238 225 168 221 65 353 350 56 350 330 62 270 348 323 313 284 248 246 230 209 207 199 200 201 195 191 192 188 188 183 184 190 193 203 210 167 190 218 222 225 227
237 283 218 216 78 258 93 127 48 56 83 356 262 145 285 286 242 305 303 300 247 230 217 215 206 183 193 182 182 181 182 191 180 181 189 192 202 198 194 210 221 227 227 231
320 243 287 143 129 25 67 51 328 344 7 225 139 284 250 280 283 244 279 287 291 247 216 208 194 187 184 183 182 180 184 193 184 186 192 199 205 196 207 207 205 204 223 227
238 326 186 324 195 184 145 159 159 252 275 285 97 238 249 213 298 293 282 276 281 277 225 203 202 202 192 189 184 183 186 191 185 190 199 202 203 205 213 203 197 213 211 216
167 275 288 204 71 99 161 190 198 117 29 30 257 291 299 324 343 341 351 356 350 339 301 246 211 195 195 186 190 189 186 196 191 196 196 202 201 202 209 202 199 212 209 218
198 295 7 347 114 61 180 160 68 1 236 270 287 278 240 337 349 351 22 11 357 346 340 302 250 225 206 198 191 189 194 195 195 193 197 202 204 205 208 179 209 213 216 209
147 141 291 44 201 185 113 251 64 131 152 197 289 269 217 225 272 360 355 10 5 355 343 316 264 247 238 227 193 196 195 194 192 194 195 198 200 199 192 201 212 213 197 199
246 159 234 223 122 183 181 206 155 137 240 244 175 271 258 242 281 333 324 333 334 335 337 323 296 258 218 214 203 203 203 199 203 195 193 201 190 186 199 211 212 192 207 197
201 259 334 330 17 13 222 199 162 116 100 201 169 262 245 297 288 270 309 327 324 316 335 326 298 252 245 231 213 206 206 212 200 182 193 197 201 196 209 212 204 192 198 201
177 188 192 203 225 127 222 210 207 161 156 238 232 270 271 294 308 308 320 311 314 311 299 299 297 270 248 233 223 220 217 207 196 191 195 205 208 208 210 205 198 198 196 195
40 282 221 258 266 245 243 242 200 200 226 222 265 247 272 261 279 285 291 299 307 305 299 268 275 273 256 236 225 217 219 202 196 199 202 215 210 205 202 200 203 200 193 203
358 299 348 282 286 275 269 250 236 223 243 261 266 268 268 286 277 280 288 287 290 292 289 279 263 264 258 246 231 219 220 212 188 204 213 211 198 190 205 206 202 195 203 201
294 323 351 266 334 328 287 227 220 230 215 229 251 271 282 280 266 277 279 276 280 286 289 285 271 264 252 238 232 219 223 206 195 205 215 204 204 204 205 203 193 204 205 193
239 256 249 283 318 268 265 87 69 232 254 255 265 274 277 276 277 266 260 258 280 288 292 288 271 267 256 250 244 240 208 193 199 210 213 208 203 211 210 197 201 208 198 197
216 220 247 255 243 280 280 290 280 280 296 231 259 296 322 316 240 279 263 277 273 298 292 283 272 260 265 258 249 232 221 211 200 213 218 214 207 211 201 197 206 207 193 195
229 236 227 214 243 256 346 76 63 208 240 17 29 6 355 352 360 311 331 319 313 315 307 299 295 281 277 278 246 210 226 208 216 222 225 223 214 214 206 206 207 200 197 206
293 268 237 246 248 261 9 329 326 288 301 336 347 331 332 335 274 293 311 320 317 310 303 317 311 303 294 301 268 246 259 233 234 242 231 212 200 206 210 210 198 194 198 192
241 243 257 252 257 267 21 14 293 341 315 314 310 291 312 304 302 301 311 317 324 326 325 330 324 313 312 318 298 283 272 267 256 244 233 225 213 211 202 192 189 182 183 187
273 228 261 270 288 303 301 274 246 286 301 311 298 306 309 300 298 299 305 310 316 321 318 318 312 310 312 313 286 290 276 303 299 270 258 248 228 211 198 192 185 185 186 192
248 246 254 271 272 265 279 282 283 281 278 277 279 291 292 290 297 296 297 300 307 310 314 319 325 323 315 310 301 255 287 294 290 280 274 261 235 225 202 192 184 193 191 199
249 275 252 261 272 284 279 271 271 281 290 294 282 284 291 293 293 293 293 294 297 302 305 308 311 309 302 299 294 288 283 263 257 259 262 258 235 211 203 205 196 202 208 199
248 250 247 254 260 265 275 281 284 278 284 280 279 288 282 284 289 289 283 280 286 297 303 302 300 280 287 298 291 280 272 257 259 266 262 246 232 224 211 190 196 25 203 210